Weather History for Montague, CA

Change the Weather History Date:

Wednesday, March 13, 2013

  Actual Average Record
Temperature  
Mean Temperature 51 °F 43 °F  
Max Temperature 69 °F 56 °F 71 °F (1979)
Min Temperature 33 °F 30 °F 16 °F (1990)
Degree Days  
Heating Degree Days 14 22  
Month to date heating degree days 291 291  
Since 1 July heating degree days 4031 4168  
Cooling Degree Days 0 0  
Month to date cooling degree days 0 0  
Year to date cooling degree days 0 0  
Growing Degree Days 1 (Base 50)    
Moisture  
Dew Point 34 °F    
Average Humidity 60    
Maximum Humidity 82    
Minimum Humidity 32    
Precipitation  
Precipitation 0.00 in 0.07 in 0.56 in (1983)
Month to date precipitation 0.12 1.04  
Year to date precipitation 1.16 5.25  
Sea Level Pressure  
Sea Level Pressure 30.23 in    
Wind  
Wind Speed 2 mph (NNE)    
Max Wind Speed 9 mph    
Max Gust Speed 10 mph    
T = Trace of Precipitation, MM = Missing Value Source: NWS Daily Summary

Daily Weather History Graph

Daily Weather History Graph

Search for Another Location

Airport:

Trip Planner

Search our weather history database for the weather conditions in past years. The results will help you decide how hot, cold, wet, or windy it might be!

Date:

Astronomy

Mar. 13, 2013 Rise Set
Actual Time 7:24 AM PDT 7:14 PM PDT
Civil Twilight 6:56 AM PDT 7:42 PM PDT
Nautical Twilight 6:24 AM PDT 8:14 PM PDT
Astronomical Twilight 5:51 AM PDT 8:47 PM PDT
Moon 8:04 AM PDT (3/13) 9:39 PM PDT (3/13)
Length of Visible Light 12h 45m
Length of Day
11h 50m
Waxing Crescent, 4% of the Moon is Illuminated
Mar 13
Waxing Crescent
Mar 19
First Quarter
Mar 27
Full
Apr 2
Last Quarter
Apr 10
New

Hourly Weather History & Observations

Time (PDT) Temp. Windchill Dew Point Humidity Pressure Visibility Wind Dir Wind Speed Gust Speed Precip Events Conditions
12:53 AM 42.1 °F - 32.0 °F 67% 30.25 in - Calm Calm - N/A   Clear
1:53 AM 37.0 °F - 28.9 °F 73% 30.26 in - Calm Calm - N/A   Clear
2:53 AM 37.0 °F 33.3 °F 28.9 °F 73% 30.26 in - NE 4.6 mph - N/A   Clear
3:53 AM 34.0 °F 31.0 °F 28.9 °F 82% 30.26 in - NNE 3.5 mph - N/A   Clear
4:53 AM 34.0 °F - 28.9 °F 82% 30.25 in - Calm Calm - N/A   Clear
5:53 AM 35.1 °F 32.2 °F 30.0 °F 82% 30.26 in - NNE 3.5 mph - N/A   Clear
6:53 AM 34.0 °F 31.0 °F 28.0 °F 79% 30.26 in - NNE 3.5 mph - N/A   Clear
7:53 AM 35.1 °F - 30.0 °F 82% 30.29 in - Calm Calm - N/A   Clear
8:53 AM 41.0 °F - 33.1 °F 73% 30.29 in - Calm Calm - N/A   Clear
9:53 AM 44.1 °F - 34.0 °F 68% 30.29 in - Calm Calm - N/A   Clear
10:53 AM 50.0 °F - 37.0 °F 61% 30.30 in - Calm Calm - N/A   Clear
11:53 AM 55.0 °F - 37.0 °F 51% 30.28 in - Calm Calm - N/A   Clear
12:53 PM 57.9 °F - 36.0 °F 44% 30.27 in - Calm Calm - N/A   Clear
1:53 PM 63.0 °F - 37.0 °F 38% 30.25 in - WSW 4.6 mph - N/A   Clear
2:53 PM 64.9 °F - 37.9 °F 37% 30.21 in - Calm Calm - N/A   Clear
3:53 PM 68.0 °F - 39.0 °F 35% 30.20 in - Calm Calm - N/A   Clear
4:53 PM 68.0 °F - 37.9 °F 33% 30.18 in - Calm Calm - N/A   Clear
5:53 PM 68.0 °F - 37.9 °F 33% 30.16 in - Calm Calm - N/A   Clear
6:53 PM 64.9 °F - 39.9 °F 40% 30.16 in - Calm Calm - N/A   Clear
7:53 PM 54.0 °F - 37.0 °F 53% 30.17 in - Calm Calm - N/A   Clear
8:53 PM 48.9 °F - 37.0 °F 64% 30.19 in - SSE 5.8 mph - N/A   Clear
9:53 PM 46.0 °F 43.9 °F 35.1 °F 66% 30.21 in - North 4.6 mph - N/A   Clear
10:53 PM 46.9 °F - 35.1 °F 63% 30.20 in - NNE 4.6 mph - N/A   Clear
11:53 PM 48.9 °F - 37.0 °F 64% 30.18 in - NNE 5.8 mph - N/A   Clear